Location: *
(33.8649°S, 62.1526°E)
Time: 11:07:55
(UTC+00:00)

Spot 4 Rocket - Pass Details

Date: 17 January 2021
Orbit: 775 x 782 km, 98.7° (Epoch: 02 March)

Event Time Altitude Azimuth Distance (km) Brightness Sun altitude
Exits shadow 22:20:39 63° 42° (NE) 873 4.1 -26.3°
Maximum altitude 22:21:26 77° 105° (ESE) 807 4.1 -26.2°
Drops below altitude 10° 22:26:37 10° 190° (S) 2,355 7.0 -25.6°
Sets 22:28:58 0° 191° (S) 3,290 7.8 -25.3°
